Terminal Aerodrome Forecast
Issued by NWS Kansas City/Pleasant Hill, MO

Home | Current Version | Previous Version | Text Only | Print | Product List | Glossary On
Versions: 1 2 3 4 5 6 7 8 9 10 11 12 13 14
000
FTUS43 KEAX 122320
TAFMCI
TAF
KMCI 122320Z 1300/1324 20007KT P6SM SKC
     FM131200 22012KT P6SM FEW250
     FM131700 32015G25KT P6SM BKN150=

USA.gov is the U.S. government's official web portal to all federal, state and local government web resources and services.